Sylvania, OH

12:34 PM EST on February 27, 2017 (GMT -0500)
Lambertville

Weather History for KDUH - February, 2014

Change the Weather History Date:

Wednesday, February 26, 2014

  Actual Average (KTOL) Record (KTOL)
Temperature  
Mean Temperature 14 °F -  
Max Temperature 19 °F 37 °F 71 °F (2000)
Min Temperature 10 °F 20 °F -8 °F (1963)
Degree Days  
Heating Degree Days 50    
Moisture  
Dew Point 3 °F    
Average Humidity 60    
Maximum Humidity 79    
Minimum Humidity 45    
Precipitation  
Precipitation 0.00 in - - ()
Sea Level Pressure  
Sea Level Pressure 29.98 in    
Wind  
Wind Speed 8 mph (West)    
Max Wind Speed 16 mph    
Max Gust Speed 36 mph    
Visibility 10 miles    
Events Snow    
Averages and records for this station are not official NWS values.
T = Trace of Precipitation, MM = Missing Value Source: NWS Daily Summary

Daily Weather History Graph

Daily Weather History Graph

Search for Another Location

Airport or City:

Trip Planner

Search our weather history database for the weather conditions in past years. The results will help you decide how hot, cold, wet, or windy it might be!

Date:

Astronomy

Feb. 26, 2014 Rise Set
Actual Time 7:14 AM EST 6:21 PM EST
Civil Twilight 6:46 AM EST 6:49 PM EST
Nautical Twilight 6:13 AM EST 7:21 PM EST
Astronomical Twilight 5:41 AM EST 7:53 PM EST
Moon 5:01 AM EST (2/26) 3:33 PM EST (2/26)
Length of Visible Light 12h 03m
Length of Day
11h 07m
Waning Crescent, 10% of the Moon is Illuminated
Feb 26
Waning Crescent
Mar 1
New
Mar 8
First Quarter
Mar 16
Full
Mar 23
Last Quarter

Hourly Weather History & Observations

Time (EST) Temp. Windchill Dew Point Humidity Pressure Visibility Wind Dir Wind Speed Gust Speed Precip Events Conditions
12:15 AM 19.4 °F 10.4 °F 3.2 °F 49% 30.02 in 10.0 mi West 6.9 mph - N/A   Scattered Clouds
12:35 AM 19.4 °F 8.6 °F 5.0 °F 54% 30.03 in 10.0 mi WNW 9.2 mph - N/A   Mostly Cloudy
12:55 AM 17.6 °F 7.3 °F 8.6 °F 68% 30.03 in 10.0 mi WNW 8.1 mph - N/A   Mostly Cloudy
1:15 AM 17.6 °F 8.2 °F 10.4 °F 73% 30.04 in 7.0 mi WNW 6.9 mph 18.4 mph N/A   Overcast
1:35 AM 17.6 °F 8.2 °F 12.2 °F 79% 30.04 in 2.5 mi NW 6.9 mph - N/A Snow Light Snow
1:55 AM 17.6 °F 7.3 °F 10.4 °F 73% 30.04 in 3.0 mi NW 8.1 mph 16.1 mph N/A Snow Light Snow
2:15 AM 17.6 °F 8.2 °F 8.6 °F 68% 30.04 in 10.0 mi NW 6.9 mph - N/A Snow Light Snow
2:35 AM 15.8 °F 7.2 °F 8.6 °F 73% 30.04 in 10.0 mi NW 5.8 mph - N/A   Overcast
2:55 AM 15.8 °F 5.1 °F 6.8 °F 68% 30.04 in 10.0 mi WNW 8.1 mph - N/A   Overcast
3:15 AM 14.0 °F 5.1 °F 3.2 °F 62% 30.05 in 10.0 mi WNW 5.8 mph - N/A   Scattered Clouds
3:35 AM 14.0 °F 3.9 °F 5.0 °F 67% 30.05 in 10.0 mi WNW 6.9 mph - N/A   Scattered Clouds
3:55 AM 14.0 °F 6.5 °F 5.0 °F 67% 30.06 in 10.0 mi WNW 4.6 mph - N/A   Mostly Cloudy
4:15 AM 12.2 °F 1.7 °F 3.2 °F 67% 30.06 in 10.0 mi WNW 6.9 mph - N/A   Scattered Clouds
4:35 AM 12.2 °F 0.7 °F 3.2 °F 67% 30.07 in 10.0 mi WNW 8.1 mph - N/A   Clear
4:55 AM 12.2 °F 1.7 °F 1.4 °F 62% 30.07 in 10.0 mi WNW 6.9 mph - N/A   Clear
5:15 AM 12.2 °F 1.7 °F 3.2 °F 67% 30.08 in 10.0 mi WNW 6.9 mph - N/A   Clear
5:35 AM 12.2 °F 4.3 °F 3.2 °F 67% 30.08 in 10.0 mi WNW 4.6 mph - N/A   Scattered Clouds
5:55 AM 12.2 °F -0.2 °F 3.2 °F 67% 30.09 in 10.0 mi NW 9.2 mph 17.3 mph N/A   Mostly Cloudy
6:15 AM 12.2 °F -0.2 °F 3.2 °F 67% 30.09 in 10.0 mi NW 9.2 mph - N/A   Mostly Cloudy
6:35 AM 12.2 °F 1.7 °F 1.4 °F 62% 30.10 in 10.0 mi WNW 6.9 mph - N/A   Scattered Clouds
6:55 AM 10.4 °F -1.5 °F 3.2 °F 73% 30.10 in 10.0 mi WNW 8.1 mph - N/A   Scattered Clouds
7:15 AM 10.4 °F 2.2 °F 3.2 °F 73% 30.10 in 10.0 mi NW 4.6 mph - N/A   Clear
7:35 AM 10.4 °F - 3.2 °F 73% 30.11 in 10.0 mi Calm Calm - N/A   Clear
7:55 AM 10.4 °F 4.0 °F 3.2 °F 73% 30.12 in 10.0 mi WNW 3.5 mph - N/A   Clear
8:15 AM 12.2 °F - 3.2 °F 67% 30.13 in 10.0 mi Calm Calm - N/A   Scattered Clouds
8:35 AM 12.2 °F 6.1 °F 3.2 °F 67% 30.13 in 10.0 mi West 3.5 mph - N/A   Scattered Clouds
8:55 AM 12.2 °F 6.1 °F 1.4 °F 62% 30.13 in 10.0 mi NW 3.5 mph - N/A   Mostly Cloudy
9:15 AM 12.2 °F 6.1 °F 1.4 °F 62% 30.13 in 10.0 mi NNW 3.5 mph - N/A   Mostly Cloudy
9:35 AM 12.2 °F 0.7 °F 3.2 °F 67% 30.13 in 10.0 mi West 8.1 mph - N/A   Scattered Clouds
9:55 AM 14.0 °F 2.9 °F 3.2 °F 62% 30.13 in 10.0 mi West 8.1 mph - N/A   Scattered Clouds
10:15 AM 14.0 °F 2.9 °F 1.4 °F 57% 30.13 in 10.0 mi West 8.1 mph - N/A   Clear
10:35 AM 14.0 °F 2.9 °F 1.4 °F 57% 30.12 in 10.0 mi West 8.1 mph - N/A   Clear
10:55 AM 14.0 °F 3.9 °F 1.4 °F 57% 30.10 in 10.0 mi West 6.9 mph - N/A   Clear
11:15 AM 14.0 °F 2.0 °F -0.4 °F 53% 30.11 in 10.0 mi West 9.2 mph - N/A   Scattered Clouds
11:35 AM 15.8 °F 3.4 °F 1.4 °F 53% 30.10 in 10.0 mi West 10.4 mph - N/A   Mostly Cloudy
11:55 AM 14.0 °F 2.0 °F 1.4 °F 57% 30.10 in 10.0 mi WSW 9.2 mph 17.3 mph N/A   Mostly Cloudy
12:15 PM 14.0 °F 2.0 °F 1.4 °F 57% 30.08 in 10.0 mi West 9.2 mph 19.6 mph N/A   Overcast
12:35 PM 14.0 °F -0.8 °F 1.4 °F 57% 30.07 in 7.0 mi WSW 13.8 mph 18.4 mph N/A   Overcast
12:55 PM 15.8 °F 3.4 °F 3.2 °F 58% 30.06 in 7.0 mi West 10.4 mph - N/A   Overcast
1:15 PM 15.8 °F 1.4 °F 1.4 °F 53% 30.04 in 10.0 mi WSW 13.8 mph - N/A   Overcast
1:35 PM 15.8 °F 2.7 °F 1.4 °F 53% 30.03 in 10.0 mi WSW 11.5 mph - N/A   Mostly Cloudy
1:55 PM 15.8 °F 0.9 °F 3.2 °F 58% 30.01 in 7.0 mi WSW 15.0 mph 26.5 mph N/A   Mostly Cloudy
2:15 PM 15.8 °F 4.2 °F 1.4 °F 53% 30.00 in 10.0 mi WSW 9.2 mph 20.7 mph N/A   Overcast
2:35 PM 17.6 °F 5.0 °F 3.2 °F 53% 29.98 in 10.0 mi SW 11.5 mph 18.4 mph N/A   Overcast
2:55 PM 17.6 °F 3.2 °F 3.2 °F 53% 29.98 in 10.0 mi West 15.0 mph 20.7 mph N/A   Mostly Cloudy
3:15 PM 15.8 °F 0.9 °F 3.2 °F 58% 29.96 in 10.0 mi West 15.0 mph 23.0 mph N/A   Mostly Cloudy
3:35 PM 15.8 °F 0.3 °F 1.4 °F 53% 29.95 in 10.0 mi WSW 16.1 mph 23.0 mph N/A   Scattered Clouds
3:55 PM 15.8 °F 3.4 °F 3.2 °F 58% 29.94 in 10.0 mi WSW 10.4 mph 20.7 mph N/A   Mostly Cloudy
4:15 PM 17.6 °F 3.2 °F 3.2 °F 53% 29.93 in 10.0 mi WSW 15.0 mph 20.7 mph N/A   Scattered Clouds
4:35 PM 17.6 °F 3.2 °F 3.2 °F 53% 29.91 in 10.0 mi WSW 15.0 mph 21.9 mph N/A   Scattered Clouds
4:55 PM 17.6 °F 3.2 °F 1.4 °F 49% 29.90 in 10.0 mi SW 15.0 mph 21.9 mph N/A   Scattered Clouds
5:15 PM 17.6 °F 3.2 °F -0.4 °F 45% 29.90 in 10.0 mi WSW 15.0 mph 21.9 mph N/A   Clear
5:35 PM 15.8 °F 2.1 °F -0.4 °F 49% 29.88 in 10.0 mi WSW 12.7 mph 19.6 mph N/A   Clear
5:55 PM 14.0 °F 1.2 °F -0.4 °F 53% 29.87 in 10.0 mi WSW 10.4 mph 18.4 mph N/A   Clear
6:15 PM 14.0 °F 2.9 °F -0.4 °F 53% 29.85 in 10.0 mi WSW 8.1 mph 17.3 mph N/A   Clear
6:35 PM 14.0 °F 2.0 °F 1.4 °F 57% 29.85 in 10.0 mi WSW 9.2 mph - N/A   Clear
6:55 PM 14.0 °F 2.9 °F -0.4 °F 53% 29.84 in 10.0 mi SW 8.1 mph - N/A   Clear
7:15 PM 14.0 °F 2.0 °F -0.4 °F 53% 29.83 in 10.0 mi SW 9.2 mph - N/A   Clear
7:35 PM 14.0 °F 5.1 °F 1.4 °F 57% 29.82 in 10.0 mi WSW 5.8 mph - N/A   Clear
7:55 PM 14.0 °F 2.9 °F 1.4 °F 57% 29.82 in 10.0 mi WSW 8.1 mph - N/A   Clear
8:15 PM 14.0 °F 2.9 °F 1.4 °F 57% 29.81 in 10.0 mi WSW 8.1 mph - N/A   Clear
8:35 PM 14.0 °F 2.0 °F 1.4 °F 57% 29.78 in 10.0 mi SW 9.2 mph - N/A   Scattered Clouds
8:55 PM 14.0 °F 2.9 °F 1.4 °F 57% 29.75 in 10.0 mi SW 8.1 mph - N/A   Mostly Cloudy
9:15 PM 14.0 °F 1.2 °F 3.2 °F 62% 29.75 in 10.0 mi WSW 10.4 mph - N/A   Scattered Clouds
9:35 PM 15.8 °F 3.4 °F 3.2 °F 58% 29.75 in 10.0 mi SW 10.4 mph 16.1 mph N/A   Scattered Clouds
9:55 PM 15.8 °F 2.7 °F 3.2 °F 58% 29.73 in 10.0 mi SW 11.5 mph 18.4 mph N/A   Clear
10:15 PM 17.6 °F 3.7 °F 3.2 °F 53% 29.72 in 10.0 mi SW 13.8 mph 21.9 mph N/A   Scattered Clouds
10:35 PM 17.6 °F 3.7 °F 1.4 °F 49% 29.72 in 10.0 mi WSW 13.8 mph 23.0 mph N/A   Clear
10:55 PM 17.6 °F 2.7 °F 3.2 °F 53% 29.72 in 10.0 mi WSW 16.1 mph 24.2 mph N/A   Clear
11:15 PM 15.8 °F 0.9 °F 1.4 °F 53% 29.71 in 10.0 mi WSW 15.0 mph 21.9 mph N/A   Clear
11:35 PM 15.8 °F 1.4 °F 1.4 °F 53% 29.70 in 10.0 mi WSW 13.8 mph 35.7 mph N/A   Mostly Cloudy
11:55 PM 15.8 °F 0.9 °F 1.4 °F 53% 29.69 in 10.0 mi WSW 15.0 mph 27.6 mph N/A   Mostly Cloudy